| time (UTC) | temp F | wind direction | speed MPH | gust MPH | rain 1hr in | rain 24hr in | rain mn in | humidity % | barometer mb |
| 20260906161558 | 97 | 99 | 0.0 | 0.0 | 0.00 | 0.00 | 0.00 | 47 | 1012.9 |
| 20260906160054 | 95 | 101 | 0.0 | 0.0 | 0.00 | 0.00 | 0.00 | 51 | 1013.0 |
| 20260906154555 | 94 | 135 | 0.0 | 0.0 | 0.00 | 0.00 | 0.00 | 51 | 1013.0 |
| 20260906153045 | 93 | 135 | 0.0 | 1.0 | 0.00 | 0.00 | 0.00 | 52 | 1012.9 |
| 20260906151542 | 92 | 135 | 0.0 | 1.0 | 0.00 | 0.00 | 0.00 | 55 | 1012.9 |
| 20260906150038 | 90 | 150 | 0.0 | 0.0 | 0.00 | 0.00 | 0.00 | 58 | 1012.8 |
| 20260906144535 | 88 | 151 | 0.0 | 0.0 | 0.00 | 0.00 | 0.00 | 61 | 1012.8 |
| 20260906143033 | 86 | 154 | 0.0 | 0.0 | 0.00 | 0.00 | 0.00 | 64 | 1012.7 |
| 20260906141524 | 84 | 154 | 0.0 | 0.0 | 0.00 | 0.00 | 0.00 | 66 | 1012.8 |
| 20260906140038 | 82 | 155 | 0.0 | 0.0 | 0.00 | 0.00 | 0.00 | 70 | 1012.6 |
| 20260906134517 | 80 | 92 | 0.0 | 0.0 | 0.00 | 0.00 | 0.00 | 75 | 1012.5 |
| 20260906133015 | 79 | 92 | 0.0 | 0.0 | 0.00 | 0.00 | 0.00 | 77 | 1012.5 |
| 20260906131517 | 77 | 92 | 0.0 | 0.0 | 0.00 | 0.00 | 0.00 | 83 | 1012.5 |
| 20260906130028 | 77 | 92 | 0.0 | 0.0 | 0.00 | 0.00 | 0.00 | 85 | 1012.6 |
| 20260906124509 | 75 | 96 | 0.0 | 0.0 | 0.00 | 0.00 | 0.00 | 87 | 1012.3 |
| 20260906123014 | 75 | 96 | 0.0 | 0.0 | 0.00 | 0.00 | 0.00 | 87 | 1012.2 |
| 20260906121506 | 75 | 96 | 0.0 | 0.0 | 0.00 | 0.00 | 0.00 | 87 | 1012.0 |
| 20260906120003 | 75 | 96 | 0.0 | 1.0 | 0.00 | 0.00 | 0.00 | 87 | 1011.8 |
| 20260906114600 | 75 | 97 | 0.0 | 0.0 | 0.00 | 0.00 | 0.00 | 87 | 1011.7 |
| 20260906113058 | 75 | 97 | 0.0 | 0.0 | 0.00 | 0.00 | 0.00 | 87 | 1011.5 |
| 20260906111557 | 75 | 97 | 0.0 | 0.0 | 0.00 | 0.00 | 0.00 | 86 | 1011.4 |
| 20260906110054 | 76 | 97 | 0.0 | 0.0 | 0.00 | 0.00 | 0.00 | 86 | 1011.3 |
| 20260906104553 | 76 | 97 | 0.0 | 0.0 | 0.00 | 0.00 | 0.00 | 86 | 1011.3 |
| 20260906103054 | 76 | 97 | 0.0 | 0.0 | 0.00 | 0.00 | 0.00 | 85 | 1011.3 |
| 20260906101552 | 76 | 97 | 0.0 | 0.0 | 0.00 | 0.00 | 0.00 | 84 | 1011.3 |
| 20260906100051 | 76 | 97 | 0.0 | 0.0 | 0.00 | 0.00 | 0.00 | 84 | 1011.3 |
| 20260906094550 | 76 | 97 | 0.0 | 0.0 | 0.00 | 0.00 | 0.00 | 84 | 1011.3 |
| 20260906093053 | 76 | 97 | 0.0 | 0.0 | 0.00 | 0.00 | 0.00 | 83 | 1011.1 |
| 20260906091547 | 76 | 97 | 0.0 | 0.0 | 0.00 | 0.00 | 0.00 | 83 | 1011.1 |
| 20260906090045 | 77 | 97 | 0.0 | 0.0 | 0.00 | 0.00 | 0.00 | 84 | 1011.0 |
| 20260906084543 | 77 | 97 | 0.0 | 0.0 | 0.00 | 0.00 | 0.00 | 84 | 1011.0 |
| 20260906083048 | 77 | 97 | 0.0 | 0.0 | 0.00 | 0.00 | 0.00 | 83 | 1010.8 |
| 20260906081543 | 78 | 97 | 0.0 | 0.0 | 0.00 | 0.00 | 0.00 | 82 | 1010.7 |
| 20260906080039 | 78 | 97 | 0.0 | 0.0 | 0.00 | 0.00 | 0.00 | 82 | 1010.8 |
| 20260906074538 | 78 | 97 | 0.0 | 0.0 | 0.00 | 0.00 | 0.00 | 81 | 1010.7 |
| 20260906073037 | 78 | 97 | 0.0 | 0.0 | 0.00 | 0.00 | 0.00 | 81 | 1010.5 |
| 20260906071540 | 78 | 97 | 0.0 | 0.0 | 0.00 | 0.00 | 0.00 | 80 | 1010.8 |
| 20260906070034 | 79 | 97 | 0.0 | 0.0 | 0.00 | 0.00 | 0.00 | 80 | 1010.9 |
| 20260906064535 | 79 | 97 | 0.0 | 0.0 | 0.00 | 0.00 | 0.00 | 79 | 1010.7 |
| 20260906063030 | 79 | 97 | 0.0 | 0.0 | 0.00 | 0.00 | 0.00 | 78 | 1010.7 |
| 20260906061529 | 79 | 97 | 0.0 | 0.0 | 0.00 | 0.00 | 0.00 | 77 | 1010.8 |
| 20260906060029 | 80 | 97 | 0.0 | 0.0 | 0.00 | 0.00 | 0.00 | 76 | 1010.9 |
| 20260906054524 | 80 | 97 | 0.0 | 0.0 | 0.00 | 0.00 | 0.00 | 75 | 1010.8 |
| 20260906053027 | 81 | 97 | 0.0 | 0.0 | 0.00 | 0.00 | 0.00 | 74 | 1010.6 |
| 20260906051529 | 81 | 97 | 0.0 | 0.0 | 0.00 | 0.00 | 0.00 | 73 | 1010.6 |
| 20260906050044 | 81 | 97 | 0.0 | 0.0 | 0.00 | 0.00 | 0.00 | 72 | 1010.5 |
| 20260906044516 | 81 | 97 | 0.0 | 0.0 | 0.00 | 0.00 | 0.00 | 72 | 1010.6 |
| 20260906043016 | 82 | 97 | 0.0 | 0.0 | 0.00 | 0.00 | 0.00 | 70 | 1010.5 |
| 20260906041517 | 82 | 97 | 0.0 | 0.0 | 0.00 | 0.00 | 0.00 | 69 | 1010.5 |
| 20260906040015 | 83 | 97 | 0.0 | 0.0 | 0.00 | 0.00 | 0.00 | 67 | 1010.5 |
| 20260906034514 | 83 | 97 | 0.0 | 0.0 | 0.00 | 0.00 | 0.00 | 66 | 1010.5 |
| 20260906033016 | 84 | 97 | 0.0 | 0.0 | 0.00 | 0.00 | 0.00 | 65 | 1010.3 |
| 20260906031519 | 85 | 97 | 0.0 | 0.0 | 0.00 | 0.00 | 0.00 | 64 | 1010.4 |
| 20260906030011 | 85 | 97 | 0.0 | 0.0 | 0.00 | 0.00 | 0.00 | 63 | 1010.4 |
| 20260906024510 | 86 | 97 | 0.0 | 0.0 | 0.00 | 0.00 | 0.00 | 62 | 1010.1 |
| 20260906023010 | 86 | 97 | 0.0 | 0.0 | 0.00 | 0.00 | 0.00 | 60 | 1010.0 |
| 20260906021511 | 87 | 97 | 0.0 | 0.0 | 0.00 | 0.00 | 0.00 | 59 | 1009.6 |
| 20260906020011 | 88 | 97 | 0.0 | 0.0 | 0.00 | 0.00 | 0.00 | 56 | 1009.6 |
| 20260906014511 | 89 | 97 | 0.0 | 0.0 | 0.00 | 0.00 | 0.00 | 53 | 1009.5 |
| 20260906013011 | 90 | 97 | 0.0 | 0.0 | 0.00 | 0.00 | 0.00 | 50 | 1009.3 |
| 20260906011508 | 92 | 97 | 0.0 | 0.0 | 0.00 | 0.00 | 0.00 | 47 | 1009.2 |
| 20260906010008 | 94 | 97 | 0.0 | 0.0 | 0.00 | 0.00 | 0.00 | 43 | 1009.1 |
| 20260906004508 | 96 | 97 | 0.0 | 0.0 | 0.00 | 0.00 | 0.00 | 39 | 1009.0 |
| 20260906003007 | 97 | 99 | 0.0 | 1.0 | 0.00 | 0.00 | 0.00 | 38 | 1009.0 |
| 20260906001506 | 98 | 179 | 0.0 | 1.0 | 0.00 | 0.00 | 0.00 | 37 | 1009.0 |
| 20260906000006 | 98 | 177 | 0.0 | 1.0 | 0.00 | 0.00 | 0.00 | 37 | 1008.9 |
| 20260905234504 | 99 | 96 | 0.0 | 1.0 | 0.00 | 0.00 | 0.00 | 36 | 1008.8 |
| 20260905233005 | 100 | 100 | 0.0 | 3.0 | 0.00 | 0.00 | 0.00 | 35 | 1008.7 |
| 20260905231504 | 101 | 96 | 0.0 | 5.0 | 0.00 | 0.00 | 0.00 | 35 | 1008.7 |
| 20260905230004 | 103 | 97 | 0.0 | 3.0 | 0.00 | 0.00 | 0.00 | 33 | 1008.6 |
| 20260905224608 | 102 | 96 | 0.0 | 2.0 | 0.00 | 0.00 | 0.00 | 35 | 1008.7 |
| 20260905223057 | 101 | 91 | 0.0 | 6.0 | 0.00 | 0.00 | 0.00 | 36 | 1008.8 |
| 20260905221556 | 100 | 92 | 0.0 | 7.0 | 0.00 | 0.00 | 0.00 | 36 | 1008.8 |
| 20260905220056 | 100 | 177 | 0.0 | 6.0 | 0.00 | 0.00 | 0.00 | 37 | 1008.9 |
| 20260905214604 | 100 | 98 | 1.0 | 5.0 | 0.00 | 0.00 | 0.00 | 37 | 1009.2 |
| 20260905213051 | 100 | 100 | 1.0 | 7.0 | 0.00 | 0.00 | 0.00 | 37 | 1009.3 |
| 20260905211550 | 101 | 96 | 0.0 | 5.0 | 0.00 | 0.00 | 0.00 | 36 | 1009.4 |
| 20260905210049 | 101 | 96 | 3.0 | 8.0 | 0.00 | 0.00 | 0.00 | 36 | 1009.7 |
| 20260905204546 | 100 | 94 | 0.0 | 1.0 | 0.00 | 0.00 | 0.00 | 37 | 1009.9 |
| 20260905203044 | 101 | 95 | 0.0 | 7.0 | 0.00 | 0.00 | 0.00 | 36 | 1010.2 |
| 20260905201542 | 100 | 170 | 0.0 | 8.0 | 0.00 | 0.00 | 0.00 | 37 | 1010.4 |
| 20260905200045 | 101 | 129 | 0.0 | 5.0 | 0.00 | 0.00 | 0.00 | 37 | 1010.6 |
| 20260905194538 | 101 | 97 | 1.0 | 7.0 | 0.00 | 0.00 | 0.00 | 36 | 1010.9 |
| 20260905193036 | 101 | 130 | 0.0 | 6.0 | 0.00 | 0.00 | 0.00 | 36 | 1011.2 |
| 20260905191535 | 101 | 95 | 0.0 | 10.0 | 0.00 | 0.00 | 0.00 | 37 | 1011.3 |
| 20260905190035 | 100 | 177 | 0.0 | 9.0 | 0.00 | 0.00 | 0.00 | 39 | 1011.4 |
| 20260905184537 | 101 | 105 | 0.0 | 4.0 | 0.00 | 0.00 | 0.00 | 38 | 1011.6 |
| 20260905183036 | 101 | 124 | 0.0 | 1.0 | 0.00 | 0.00 | 0.00 | 38 | 1011.8 |
| 20260905181532 | 100 | 106 | 1.0 | 5.0 | 0.00 | 0.00 | 0.00 | 39 | 1012.1 |
| 20260905180032 | 100 | 105 | 2.0 | 8.0 | 0.00 | 0.00 | 0.00 | 39 | 1012.1 |
| 20260905174536 | 101 | 94 | 0.0 | 3.0 | 0.00 | 0.00 | 0.00 | 37 | 1012.4 |
| 20260905173030 | 101 | 101 | 0.0 | 3.0 | 0.00 | 0.00 | 0.00 | 38 | 1012.6 |
| 20260905171527 | 100 | 152 | 0.0 | 0.0 | 0.00 | 0.00 | 0.00 | 41 | 1012.8 |
| 20260905170025 | 98 | 141 | 0.0 | 1.0 | 0.00 | 0.00 | 0.00 | 42 | 1012.8 |
| 20260905164523 | 98 | 172 | 0.0 | 1.0 | 0.00 | 0.00 | 0.00 | 43 | 1013.0 |
| 20260905163020 | 98 | 173 | 0.0 | 0.0 | 0.00 | 0.00 | 0.00 | 45 | 1013.1 |